When you browse on this site, cookies collect data to enhance your experience and personalize the content and advertising you see.
Visit our Privacy Policy to learn more. By continuing to use the site, you agree to this use of cookies and data.
  • In Austria
  • List of Countries
  • For 7 days
  • Water Temperature
  • Satellite Maps
  • Weather Map
  • News
  • Weather Widgets
  • user-avatar
    Login

    Hourly Weather Elbasan

    Today, 23 January, Wednesday

    Time Temperature Precipitation Wind Pressure Humidity
    00:00 +6°C° 0.4 mm 2 mps 726 mmHg 91%
    01:00 +6°C° 0 mm 2 mps 726 mmHg 92%
    02:00 +6°C° 0.3 mm 2 mps 726 mmHg 92%
    03:00 +6°C° 0.3 mm 2 mps 725 mmHg 92%
    04:00 +6°C° 0.3 mm 2 mps 725 mmHg 91%
    05:00 +6°C° 0.3 mm 2 mps 725 mmHg 90%
    06:00 +6°C° 0.3 mm 2 mps 725 mmHg 88%
    07:00 +6°C° 0.3 mm 2 mps 725 mmHg 87%
    08:00 +7°C° 0.4 mm 2 mps 724 mmHg 85%
    09:00 +7°C° 0.4 mm 2 mps 724 mmHg 84%
    10:00 +9°C° 0.4 mm 1 mps 724 mmHg 82%
    11:00 +9°C° 0.4 mm 1 mps 723 mmHg 81%
    12:00 +9°C° 0.4 mm 1 mps 723 mmHg 80%
    13:00 +10°C° 0.4 mm 1 mps 722 mmHg 79%
    14:00 +9°C° 1.2 mm 1 mps 721 mmHg 83%
    15:00 +8°C° 1.2 mm 1 mps 721 mmHg 86%
    16:00 +7°C° 1.2 mm 0 mps 720 mmHg 90%
    17:00 +7°C° 0.9 mm 1 mps 720 mmHg 89%
    18:00 +7°C° 0.9 mm 1 mps 719 mmHg 89%
    19:00 +7°C° 0.9 mm 1 mps 719 mmHg 88%
    20:00 +7°C° 1 mm 1 mps 719 mmHg 89%
    21:00 +7°C° 1 mm 1 mps 719 mmHg 90%
    22:00 +6°C° 1 mm 0 mps 719 mmHg 90%
    23:00 +5°C° 1.1 mm 0 mps 718 mmHg 91%

    Tomorrow, 24 January, Thursday

    Time Temperature Precipitation Wind Pressure Humidity
    00:00 +6°C° 1.1 mm 1 mps 718 mmHg 91%
    01:00 +6°C° 1.1 mm 1 mps 717 mmHg 91%
    02:00 +6°C° 0.8 mm 1 mps 717 mmHg 92%
    03:00 +6°C° 0.8 mm 1 mps 717 mmHg 92%
    04:00 +6°C° 0.8 mm 1 mps 717 mmHg 93%
    05:00 +6°C° 0.8 mm 1 mps 717 mmHg 93%
    06:00 +5°C° 0.8 mm 1 mps 717 mmHg 93%
    07:00 +5°C° 0.8 mm 1 mps 717 mmHg 93%
    08:00 +6°C° 0 mm 1 mps 718 mmHg 89%
    09:00 +7°C° 0 mm 1 mps 718 mmHg 85%
    10:00 +8°C° 0 mm 1 mps 718 mmHg 82%
    11:00 +8°C° 0 mm 1 mps 718 mmHg 78%
    12:00 +9°C° 0 mm 1 mps 718 mmHg 74%
    13:00 +9°C° 0 mm 1 mps 718 mmHg 70%
    14:00 +9°C° 0 mm 1 mps 718 mmHg 72%
    15:00 +8°C° 0 mm 2 mps 718 mmHg 74%
    16:00 +7°C° 0 mm 2 mps 718 mmHg 76%
    17:00 +6°C° 0 mm 2 mps 718 mmHg 77%
    18:00 +4°C° 0 mm 3 mps 718 mmHg 78%
    19:00 +3°C° 0 mm 3 mps 718 mmHg 79%
    20:00 +4°C° 0 mm 4 mps 718 mmHg 78%
    21:00 +4°C° 0 mm 4 mps 717 mmHg 77%
    22:00 +4°C° 0 mm 4 mps 717 mmHg 75%
    23:00 +3°C° 0.2 mm 5 mps 717 mmHg 75%

    Day after tomorrow, 25 January, Friday

    Time Temperature Precipitation Wind Pressure Humidity
    00:00 +3°C° 0.2 mm 5 mps 716 mmHg 75%
    01:00 +3°C° 0.2 mm 5 mps 716 mmHg 75%
    02:00 +4°C° 0.1 mm 4 mps 716 mmHg 77%
    03:00 +3°C° 0.1 mm 3 mps 716 mmHg 79%
    04:00 +4°C° 0.1 mm 2 mps 716 mmHg 82%
    05:00 +4°C° 0.1 mm 2 mps 716 mmHg 82%
    06:00 +4°C° 0.1 mm 2 mps 717 mmHg 82%
    07:00 +4°C° 0.1 mm 2 mps 717 mmHg 82%
    08:00 +5°C° 0.1 mm 2 mps 717 mmHg 82%
    09:00 +5°C° 0.1 mm 2 mps 718 mmHg 81%
    10:00 +6°C° 0.1 mm 2 mps 719 mmHg 80%
    11:00 +7°C° 0 mm 2 mps 718 mmHg 78%
    12:00 +8°C° 0 mm 2 mps 718 mmHg 76%
    13:00 +8°C° 0 mm 2 mps 718 mmHg 74%
    14:00 +8°C° 0 mm 2 mps 718 mmHg 75%
    15:00 +8°C° 0 mm 2 mps 719 mmHg 76%
    16:00 +7°C° 0 mm 2 mps 719 mmHg 77%
    17:00 +6°C° 0 mm 2 mps 719 mmHg 78%
    18:00 +5°C° 0 mm 2 mps 719 mmHg 78%
    19:00 +3°C° 0 mm 3 mps 720 mmHg 79%
    20:00 +2°C° 0 mm 3 mps 720 mmHg 79%
    21:00 +2°C° 0 mm 3 mps 720 mmHg 78%
    22:00 +1°C° 0 mm 3 mps 721 mmHg 78%
    23:00 +1°C° 0 mm 3 mps 721 mmHg 78%

    26 January, Saturday

    Time Temperature Precipitation Wind Pressure Humidity
    00:00 0°C° 0 mm 3 mps 721 mmHg 77%
    01:00 0°C° 0 mm 3 mps 721 mmHg 77%
    02:00 0°C° 0 mm 3 mps 721 mmHg 76%
    03:00 0°C° 0 mm 3 mps 721 mmHg 75%
    04:00 -1°C° 0 mm 3 mps 721 mmHg 75%
    05:00 -1°C° 0 mm 3 mps 721 mmHg 74%
    06:00 -1°C° 0 mm 3 mps 722 mmHg 74%
    07:00 -1°C° 0 mm 3 mps 722 mmHg 73%
    08:00 +1°C° 0 mm 3 mps 723 mmHg 71%
    09:00 +2°C° 0 mm 3 mps 723 mmHg 68%
    10:00 +4°C° 0 mm 3 mps 723 mmHg 65%
    11:00 +6°C° 0 mm 2 mps 723 mmHg 64%
    12:00 +7°C° 0 mm 2 mps 723 mmHg 64%
    13:00 +7°C° 0 mm 2 mps 723 mmHg 64%
    14:00 +7°C° 0 mm 2 mps 724 mmHg 66%
    15:00 +7°C° 0 mm 2 mps 724 mmHg 69%
    16:00 +7°C° 0 mm 1 mps 724 mmHg 71%
    17:00 +5°C° 0 mm 2 mps 724 mmHg 73%
    18:00 +4°C° 0 mm 2 mps 725 mmHg 75%
    19:00 +3°C° 0 mm 2 mps 725 mmHg 77%
    20:00 +2°C° 0 mm 2 mps 726 mmHg 76%
    21:00 +2°C° 0 mm 2 mps 726 mmHg 76%
    22:00 +1°C° 0 mm 2 mps 726 mmHg 76%
    23:00 +1°C° 0 mm 2 mps 726 mmHg 75%

    27 January, Sunday

    Time Temperature Precipitation Wind Pressure Humidity
    00:00 +1°C° 0 mm 2 mps 726 mmHg 74%
    01:00 -1°C° 0 mm 2 mps 726 mmHg 73%
    02:00 -1°C° 0 mm 2 mps 726 mmHg 72%
    03:00 -1°C° 0 mm 2 mps 726 mmHg 71%
    04:00 -1°C° 0 mm 2 mps 725 mmHg 70%
    05:00 -1°C° 0 mm 2 mps 726 mmHg 70%
    06:00 -1°C° 0 mm 2 mps 726 mmHg 69%
    07:00 -1°C° 0 mm 2 mps 726 mmHg 68%
    08:00 +3°C° 0 mm 1 mps 726 mmHg 64%
    09:00 +5°C° 0 mm 1 mps 726 mmHg 60%
    10:00 +6°C° 0 mm 1 mps 726 mmHg 56%
    11:00 +7°C° 0 mm 1 mps 726 mmHg 56%
    12:00 +8°C° 0 mm 1 mps 725 mmHg 56%
    13:00 +8°C° 0 mm 1 mps 725 mmHg 56%
    14:00 +8°C° 0 mm 1 mps 725 mmHg 58%
    15:00 +7°C° 0 mm 1 mps 725 mmHg 59%
    16:00 +7°C° 0 mm 1 mps 725 mmHg 61%
    17:00 +6°C° 0 mm 1 mps 725 mmHg 63%
    18:00 +5°C° 0 mm 1 mps 725 mmHg 64%
    19:00 +4°C° 0 mm 1 mps 726 mmHg 65%
    20:00 +3°C° 0 mm 1 mps 726 mmHg 65%
    21:00 +3°C° 0 mm 1 mps 726 mmHg 65%
    22:00 +2°C° 0 mm 2 mps 726 mmHg 66%
    23:00 +2°C° 0 mm 2 mps 726 mmHg 67%

    28 January, Monday

    Time Temperature Precipitation Wind Pressure Humidity
    00:00 +2°C° 0 mm 2 mps 726 mmHg 69%
    01:00 +2°C° 0 mm 2 mps 726 mmHg 71%
    02:00 +2°C° 0 mm 2 mps 725 mmHg 73%
    03:00 +1°C° 0 mm 3 mps 725 mmHg 74%
    04:00 +1°C° 0 mm 3 mps 724 mmHg 76%
    05:00 +1°C° 0 mm 3 mps 724 mmHg 76%
    06:00 +1°C° 0 mm 3 mps 724 mmHg 76%
    07:00 +1°C° 0 mm 3 mps 724 mmHg 76%
    08:00 +3°C° 0.1 mm 3 mps 724 mmHg 74%
    09:00 +4°C° 0.1 mm 3 mps 724 mmHg 72%
    10:00 +7°C° 0.1 mm 3 mps 724 mmHg 70%
    11:00 +8°C° 0 mm 3 mps 724 mmHg 69%
    12:00 +7°C° 0 mm 4 mps 723 mmHg 69%
    13:00 +8°C° 0 mm 5 mps 722 mmHg 68%
    14:00 +7°C° 0.7 mm 4 mps 722 mmHg 72%
    15:00 +7°C° 0.7 mm 3 mps 722 mmHg 77%
    16:00 +7°C° 0.7 mm 2 mps 722 mmHg 81%
    17:00 +6°C° 2.7 mm 2 mps 722 mmHg 84%
    18:00 +6°C° 2.7 mm 2 mps 722 mmHg 87%
    19:00 +5°C° 2.7 mm 2 mps 723 mmHg 90%
    20:00 +5°C° 2.7 mm 2 mps 723 mmHg 90%
    21:00 +6°C° 2.7 mm 1 mps 723 mmHg 91%
    22:00 +6°C° 2.7 mm 1 mps 723 mmHg 92%
    23:00 +6°C° 1.4 mm 1 mps 723 mmHg 91%
    Show more